Waarnemingen

Advertentie
Mijn weer
Manston, Groot Brittannië (3797): temperatuur & dauwpunt: 17.05.2018 00:00:00 - 23.05.2018 00:00:00 (BST)Manston, Groot Brittannië (3797): temperatuur -20cm & temperatuur -100cm: 17.05.2018 00:00:00 - 23.05.2018 00:00:00 (BST)Manston, Groot Brittannië (3797): windsnelheid & windstoten: 17.05.2018 00:00:00 - 23.05.2018 00:00:00 (BST)Manston, Groot Brittannië (3797): windrichting: 17.05.2018 00:00:00 - 23.05.2018 00:00:00 (BST)Manston, Groot Brittannië (3797): luchtdruk: 17.05.2018 00:00:00 - 23.05.2018 00:00:00 (BST)Manston, Groot Brittannië (3797): zicht: 17.05.2018 00:00:00 - 23.05.2018 00:00:00 (BST)Manston, Groot Brittannië (3797): Zonneschijnduur: 17.05.2018 00:00:00 - 23.05.2018 00:00:00 (BST)Manston, Groot Brittannië (3797): neerslag: 17.05.2018 00:00:00 - 23.05.2018 00:00:00 (BST)
Datum & Tijd tt [°C] td [°C] tt -20cm [°C] tt -100cm [°C] ff [km/u] ff [kn] fx [km/u] fx [kn] dd ppp [hPa] vv [km] sd [min] rr [mm]
23.05.2018 00:00:00 11,1 10,1 - - 26 14 - - N 1019,8 8 0 0,0
22.05.2018 23:00:00 11,6 10,4 - - 26 14 - - N 1019,5 9 0 0,0
22.05.2018 22:00:00 12,5 11,1 - - 21 11 - - N 1018,9 14 0 0,0
22.05.2018 21:00:00 12,0 10,5 - - 18 10 - - N 1018,3 13 6 0,0
22.05.2018 20:00:00 13,5 10,5 - - 21 11 - - N 1017,5 14 60 0,0
22.05.2018 19:00:00 14,6 10,9 - - 24 13 - - NNO 1017,2 18 60 0,0
22.05.2018 18:00:00 15,5 11,2 - - 22 12 - - NNO 1016,6 15 60 0,0
22.05.2018 17:00:00 15,9 12,0 - - 24 13 - - NNO 1016,0 15 60 0,0
22.05.2018 16:00:00 16,4 12,2 - - 18 10 - - NNO 1015,8 7 30 0,0
22.05.2018 15:00:00 15,0 11,6 - - 18 10 - - NNO 1015,9 19 0 0,0
22.05.2018 14:00:00 15,3 12,7 - - 15 8 - - NNO 1015,8 14 0 0,0
22.05.2018 13:00:00 16,8 12,7 - - 13 7 - - NNW 1015,4 19 0 0,0
22.05.2018 12:00:00 16,7 13,1 - - 15 8 - - NNW 1015,3 22 30 0,0
22.05.2018 11:00:00 14,3 11,9 - - 18 10 - - NW 1015,3 18 6 0,0
22.05.2018 10:00:00 13,9 11,6 13,2 10,9 18 10 - - NW 1015,2 13 24 0,0
22.05.2018 09:00:00 12,3 10,9 - - 18 10 - - NNW 1014,9 11 6 0,0
22.05.2018 08:00:00 11,6 11,0 - - 13 7 - - NNW 1014,6 8 0 0,4
22.05.2018 07:00:00 11,5 10,7 - - 18 10 - - N 1014,3 7 0 0,0
22.05.2018 06:00:00 11,5 10,6 - - 21 11 - - NNW 1013,6 8 0 0,0
22.05.2018 05:00:00 11,7 10,8 - - 18 10 - - NNW 1013,1 8 0 0,0
22.05.2018 04:00:00 11,9 10,8 - - 18 10 - - N 1012,9 9 0 0,0
22.05.2018 03:00:00 12,3 11,0 - - 21 11 - - N 1013,1 11 0 0,4
22.05.2018 02:00:00 12,5 11,6 - - 28 15 - - N 1012,9 3,1 0 9,8
22.05.2018 01:00:00 12,8 11,2 - - 16 9 - - N 1013,2 11 - 0,0
22.05.2018 00:00:00 13,5 11,3 - - 15 8 - - N 1013,7 16 0 0,0
21.05.2018 23:00:00 13,6 11,6 - - 11 6 - - N 1014,1 10 0 0,0
21.05.2018 22:00:00 12,4 11,2 - - 13 7 - - NNW 1013,9 8 0 0,0
21.05.2018 21:00:00 12,7 11,3 - - 11 6 - - NNW 1013,8 9 0 0,0
21.05.2018 20:00:00 13,1 10,6 - - 13 7 - - NNW 1013,7 11 42 0,0
21.05.2018 19:00:00 15,4 10,2 - - 11 6 - - NNW 1013,8 16 60 0,0
21.05.2018 18:00:00 14,9 8,8 - - 15 8 - - NNO 1014,1 16 48 0,0
21.05.2018 17:00:00 15,4 10,2 - - 18 10 - - NNO 1014,1 17 12 0,0
21.05.2018 16:00:00 16,1 11,1 - - 18 10 - - NNO 1014,4 17 24 0,0
21.05.2018 15:00:00 16,5 11,4 - - 15 8 - - NNO 1015,0 19 42 0,0
21.05.2018 14:00:00 17,2 12,4 - - 18 10 - - NNO 1015,2 19 60 0,0
21.05.2018 13:00:00 15,7 11,9 - - 18 10 - - N 1015,4 7 42 0,0
21.05.2018 12:00:00 14,1 12,2 - - 22 12 - - N 1016,0 6 0 0,0
21.05.2018 11:00:00 13,0 11,8 - - 18 10 - - NNW 1016,0 7 0 0,0
21.05.2018 10:00:00 12,9 11,5 12,7 10,9 11 6 - - NNW 1016,9 7 0 0,0
21.05.2018 09:00:00 12,8 11,7 - - 11 6 - - NNW 1017,0 6 6 0,0
21.05.2018 08:00:00 12,2 11,6 - - 11 6 - - N 1017,1 5 36 0,0
21.05.2018 07:00:00 11,4 11,3 - - 8 4 - - NNO 1017,3 3,5 18 0,0
21.05.2018 06:00:00 9,4 9,4 - - 11 6 - - N 1017,5 1,8 0 0,0
21.05.2018 05:00:00 8,5 8,4 - - 9 5 - - NNO 1017,8 1,5 0 0,0
21.05.2018 04:00:00 8,6 8,5 - - 9 5 - - NNO 1018,2 2,1 - 0,0
21.05.2018 03:00:00 9,1 9,0 - - 9 5 - - NNO 1018,6 1,7 0 0,0
21.05.2018 02:00:00 8,9 8,8 - - 5 3 - - N 1019,1 2,6 0 0,0
21.05.2018 01:00:00 8,0 7,9 - - 13 7 - - NNW 1019,6 1,5 - 0,0
21.05.2018 00:00:00 7,8 7,7 - - 9 5 - - N 1020,2 1,0 0 0,0
20.05.2018 23:00:00 9,0 8,9 - - 8 4 - - NNO 1020,9 0,5 0 0,0
20.05.2018 22:00:00 8,7 8,5 - - 13 7 - - NNO 1021,0 0,2 0 0,0
20.05.2018 21:00:00 8,9 8,6 - - 13 7 - - NNO 1020,9 0,2 0 0,0
20.05.2018 20:00:00 9,5 8,9 - - 11 6 - - ONO 1021,1 2,4 6 0,0
20.05.2018 19:00:00 10,4 9,2 - - 15 8 - - NNO 1020,8 3,5 54 0,0
20.05.2018 18:00:00 11,5 9,4 - - 15 8 - - NNO 1021,0 5 60 0,0
20.05.2018 17:00:00 12,6 10,1 - - 13 7 - - NO 1021,6 5 60 0,0
20.05.2018 16:00:00 13,5 10,6 - - 13 7 - - NNO 1022,0 7 42 0,0
20.05.2018 15:00:00 12,6 10,8 - - 11 6 - - NNO 1022,6 8 0 0,0
20.05.2018 14:00:00 12,1 10,0 - - 8 4 - - NO 1023,2 7 0 0,0
20.05.2018 13:00:00 12,0 10,2 - - 9 5 - - ONO 1023,5 6 0 0,0
20.05.2018 12:00:00 11,2 9,8 - - 9 5 - - O 1023,8 5 - 0,0
20.05.2018 11:00:00 11,6 10,1 - - 9 5 - - O 1024,0 7 0 0,0
20.05.2018 10:00:00 10,2 9,2 12,7 10,9 9 5 - - ONO 1024,4 6 0 0,0
20.05.2018 09:00:00 9,8 9,1 - - 9 5 - - ONO 1024,4 6 0 0,0
20.05.2018 08:00:00 9,1 8,6 - - 2 1 - - ONO 1024,3 4,7 0 0,0
20.05.2018 07:00:00 8,9 8,2 - - 11 6 - - OZO 1023,7 7 0 0,0
20.05.2018 06:00:00 8,6 7,9 - - 9 5 - - O 1023,6 11 0 0,0
20.05.2018 05:00:00 8,2 7,6 - - 0 0 - - N 1023,5 11 0 0,0
20.05.2018 04:00:00 7,7 7,0 - - 0 0 - - N 1023,6 9 0 0,0
20.05.2018 03:00:00 8,0 7,3 - - 0 0 - - N 1024,0 7 0 0,0
20.05.2018 02:00:00 7,9 7,2 - - 5 3 - - O 1024,1 10 0 0,0
20.05.2018 01:00:00 7,6 7,1 - - 9 5 - - O 1024,4 10 - 0,0
20.05.2018 00:00:00 7,0 6,2 - - 5 3 - - O 1024,5 14 0 0,0
19.05.2018 23:00:00 8,7 8,0 - - 8 4 - - O 1024,5 16 0 0,0
19.05.2018 22:00:00 8,4 8,1 - - 13 7 - - O 1024,3 11 0 0,0
19.05.2018 21:00:00 7,6 6,5 - - 11 6 - - O 1023,9 14 6 0,0
19.05.2018 20:00:00 9,4 7,5 - - 9 5 - - O 1023,9 20 60 0,0
19.05.2018 19:00:00 11,3 7,9 - - 5 3 - - O 1024,0 29 60 0,0
19.05.2018 18:00:00 11,7 8,0 - - 13 7 - - O 1024,1 16 60 0,0
19.05.2018 17:00:00 12,2 7,8 - - 11 6 - - O 1024,2 40 60 0,0
19.05.2018 16:00:00 12,5 7,6 - - 13 7 - - O 1024,3 24 60 0,0
19.05.2018 15:00:00 12,7 7,7 - - 15 8 - - NNO 1024,6 15 60 0,0
19.05.2018 14:00:00 13,3 8,6 - - 9 5 - - NO 1024,9 25 60 0,0
19.05.2018 13:00:00 12,9 8,2 - - 8 4 - - N 1025,2 24 60 0,0
19.05.2018 12:00:00 12,6 7,0 - - 5 3 - - NNO 1025,3 16 60 0,0
19.05.2018 11:00:00 11,8 7,0 - - 8 4 - - N 1025,2 30 54 0,0
19.05.2018 10:00:00 11,8 6,4 12,2 10,9 9 5 - - NO 1025,3 18 42 0,0
19.05.2018 09:00:00 10,5 6,9 - - 8 4 - - NO 1025,2 19 6 0,0
19.05.2018 08:00:00 9,6 6,7 - - 8 4 - - N 1024,8 27 0 0,0
19.05.2018 07:00:00 8,9 7,6 - - 4 2 - - NO 1024,6 17 0 0,0
19.05.2018 06:00:00 7,2 6,2 - - 5 3 - - ONO 1024,5 14 0 0,0
19.05.2018 05:00:00 6,6 5,7 - - 0 0 - - N 1024,4 16 0 0,0
19.05.2018 04:00:00 5,8 4,9 - - 5 3 - - O 1024,3 15 0 0,0
19.05.2018 03:00:00 5,3 4,4 - - 4 2 - - O 1024,6 10 0 0,0
19.05.2018 02:00:00 5,6 4,5 - - 0 0 - - N 1024,7 11 0 0,0
19.05.2018 01:00:00 7,6 6,1 - - 0 0 - - N 1024,7 16 - 0,0
19.05.2018 00:00:00 7,4 6,2 - - 0 0 - - N 1024,8 15 0 0,0
18.05.2018 23:00:00 7,3 5,9 - - 0 0 - - N 1025,0 18 0 0,0
18.05.2018 22:00:00 7,0 5,3 - - 5 3 - - ONO 1025,2 16 0 0,0
18.05.2018 21:00:00 7,6 5,4 - - 8 4 - - ONO 1025,1 16 0 0,0
18.05.2018 20:00:00 9,1 6,1 - - 11 6 - - O 1025,0 16 0 0,0
18.05.2018 19:00:00 10,2 6,0 - - 9 5 - - ONO 1024,9 18 54 0,0
18.05.2018 18:00:00 11,1 6,3 - - 11 6 - - O 1024,9 22 60 0,0
18.05.2018 17:00:00 12,6 7,2 - - 9 5 - - NO 1025,1 30 60 0,0
18.05.2018 16:00:00 12,4 6,8 - - 11 6 - - ONO 1025,3 26 60 0,0
18.05.2018 15:00:00 12,4 6,6 - - 11 6 - - NO 1025,4 14 60 0,0
18.05.2018 14:00:00 12,1 6,8 - - 11 6 - - NO 1025,8 16 60 0,0
18.05.2018 13:00:00 11,6 6,7 - - 11 6 - - NNO 1026,1 18 54 0,0
18.05.2018 12:00:00 10,4 5,4 - - 13 7 - - N 1026,4 12 36 0,0
18.05.2018 11:00:00 9,9 5,4 - - 15 8 - - NNO 1026,5 19 12 0,0
18.05.2018 10:00:00 10,1 6,0 12,2 10,9 13 7 - - NNO 1026,5 17 0 0,0
18.05.2018 09:00:00 9,5 5,8 - - 15 8 - - N 1026,3 18 6 0,0
18.05.2018 08:00:00 9,1 5,6 - - 16 9 - - N 1026,3 26 6 0,0
18.05.2018 07:00:00 8,7 5,8 - - 11 6 - - NNO 1026,1 18 0 0,0
18.05.2018 06:00:00 7,4 4,9 - - 15 8 - - NNO 1025,8 20 0 0,0
18.05.2018 05:00:00 6,9 4,5 - - 13 7 - - NNO 1025,7 17 0 0,0
18.05.2018 04:00:00 7,4 5,0 - - 11 6 - - NNO 1025,9 21 0 0,0
18.05.2018 03:00:00 7,4 4,8 - - 15 8 - - NNO 1026,0 18 0 0,0
18.05.2018 02:00:00 7,5 4,9 - - 13 7 - - NNO 1026,1 18 0 0,0
18.05.2018 01:00:00 7,5 4,9 - - 15 8 - - NNO 1026,3 19 - 0,0
18.05.2018 00:00:00 7,8 5,1 - - 16 9 - - NNO 1026,6 21 0 0,0
17.05.2018 23:00:00 8,1 4,9 - - 22 12 - - NNO 1026,7 23 0 0,0
17.05.2018 22:00:00 8,1 5,4 - - 18 10 - - NO 1026,9 16 0 0,0
17.05.2018 21:00:00 8,5 5,5 - - 21 11 - - NO 1026,9 16 0 0,0
17.05.2018 20:00:00 9,0 5,5 - - 21 11 - - NO 1026,6 16 36 0,0
17.05.2018 19:00:00 10,0 6,0 - - 24 13 - - NO 1026,5 14 60 0,0
17.05.2018 18:00:00 10,5 5,9 - - 26 14 - - NO 1026,5 17 60 0,0
17.05.2018 17:00:00 11,1 6,1 - - 24 13 - - NO 1026,6 12 60 0,0
17.05.2018 16:00:00 11,5 6,3 - - 22 12 - - NO 1026,6 17 60 0,0
17.05.2018 15:00:00 11,7 6,8 - - 24 13 - - NO 1026,8 12 60 0,0
17.05.2018 14:00:00 11,3 5,9 - - 26 14 - - NNO 1027,1 15 60 0,0
17.05.2018 13:00:00 11,2 5,9 - - 26 14 - - NNO 1027,4 15 60 0,0
17.05.2018 12:00:00 11,1 5,9 - - 28 15 - - NNO 1027,5 10 48 0,0
17.05.2018 11:00:00 9,8 5,7 - - 26 14 - - NNO 1027,7 13 24 0,0
17.05.2018 10:00:00 10,5 5,9 12,4 10,7 28 15 - - NNO 1027,4 20 18 0,0
17.05.2018 09:00:00 9,8 6,0 - - 24 13 - - NNO 1027,0 16 6 0,0
17.05.2018 08:00:00 9,0 5,3 - - 28 15 - - NNO 1026,8 16 6 0,0
17.05.2018 07:00:00 8,6 5,8 - - 21 11 - - N 1026,6 11 0 0,0
17.05.2018 06:00:00 8,3 5,0 - - 24 13 - - NNO 1026,4 15 0 0,0
17.05.2018 05:00:00 8,2 5,6 - - 24 13 - - N 1026,2 11 0 0,0
17.05.2018 04:00:00 8,2 5,5 - - 24 13 - - NNO 1026,1 13 0 0,0
17.05.2018 03:00:00 8,5 5,5 - - 28 15 - - N 1026,4 13 0 0,0
17.05.2018 02:00:00 8,6 5,3 - - 29 16 - - N 1026,7 14 0 0,0
17.05.2018 01:00:00 8,7 5,7 - - 31 17 46 25 N 1026,9 14 - 0,0
17.05.2018 00:00:00 8,6 5,6 - - 34 18 50 27 NNO 1027,2 12 0 0,0

tt = temperatuur
td = dauwpunt
tt -20cm = temperatuur -20cm
tt -100cm = temperatuur -100cm
ff = windsnelheid
fx = windstoten
dd = windrichting
ppp = luchtdruk
vv = zicht
sd = Zonneschijnduur
rr = neerslag

Weerstations in de omgeving